GW0118 Weather Reports


time (UTC)temp
F
wind
direction
speed
knots
gust
knots
rain 1hr
in
rain 24hr
in
rain mn
in
humidity
%
barometer
mb
20260903060108 59 120 0.0 0.9 0.00 0.00 0.00 74 1027.4
20260903054603 59 0 0.0 0.9 0.00 0.00 0.00 73 1027.3
20260903053102 59 0 0.0 0.0 0.00 0.00 0.00 72 1027.2
20260903051616 60 0 0.0 0.0 0.00 0.00 0.00 72 1027.0
20260903044604 61 0 0.0 0.0 0.00 0.00 0.00 70 1027.0
20260903043207 61 0 0.0 0.9 0.00 0.00 0.00 70 1026.9
20260903041607 61 0 0.0 0.9 0.00 0.00 0.00 70 1026.8
20260903034602 62 125 1.7 3.5 0.00 0.00 0.00 69 1026.9
20260903033100 64 115 0.0 1.7 0.00 0.00 0.00 65 1026.8
20260903031603 65 0 0.0 1.7 0.00 0.00 0.00 64 1026.8
20260903030103 66 0 0.0 2.6 0.00 0.00 0.00 63 1026.9
20260903024607 66 92 0.0 1.7 0.00 0.00 0.00 64 1026.9
20260903023101 66 0 0.0 0.9 0.00 0.00 0.00 63 1026.8
20260903021603 67 0 0.0 3.5 0.00 0.00 0.00 60 1026.9
20260903020106 68 102 0.0 3.5 0.00 0.00 0.00 61 1026.7
20260903014604 68 70 0.9 2.6 0.00 0.00 0.00 60 1026.7
20260903013109 69 117 0.9 3.5 0.00 0.00 0.00 60 1026.7
20260903011608 69 58 0.9 3.5 0.00 0.00 0.00 59 1026.7
20260903010108 69 58 1.7 5.2 0.00 0.00 0.00 59 1026.8
20260903004607 69 93 0.9 4.3 0.00 0.00 0.00 58 1026.8
20260903003105 70 110 2.6 5.2 0.00 0.00 0.00 57 1026.9
20260903001603 70 70 2.6 4.3 0.00 0.00 0.00 57 1027.0
20260903000112 70 140 0.9 3.5 0.00 0.00 0.00 57 1027.0
20260902234618 70 65 1.7 4.3 0.00 0.00 0.00 56 1026.9
20260902233105 71 61 2.6 7.0 0.00 0.00 0.00 55 1027.0
20260902231617 71 63 3.5 7.0 0.00 0.00 0.00 55 1027.0
20260902230108 71 68 3.5 7.0 0.00 0.00 0.00 54 1027.0
20260902224612 72 89 3.5 6.1 0.00 0.00 0.00 54 1026.9
20260902223107 72 98 2.6 6.1 0.00 0.00 0.00 54 1026.7
20260902221609 72 72 1.7 3.5 0.00 0.00 0.00 53 1026.7
20260902220113 72 111 0.9 5.2 0.00 0.00 0.00 52 1026.9
20260902214603 72 60 1.7 4.3 0.00 0.00 0.00 50 1026.7
20260902213129 73 84 1.7 4.3 0.00 0.00 0.00 47 1026.6
20260902211605 72 107 1.7 2.6 0.00 0.00 0.00 42 1026.6
20260902210104 73 101 0.0 1.7 0.00 0.00 0.00 35 1026.6
20260902204606 73 0 0.9 7.8 0.00 0.00 0.00 34 1026.5
20260902203108 73 54 0.0 1.7 0.00 0.00 0.00 36 1026.3
20260902201608 75 238 0.9 5.2 0.00 0.00 0.00 35 1026.0
20260902200136 76 0 0.9 2.6 0.00 0.00 0.00 31 1025.9
20260902194603 78 328 0.0 0.9 0.00 0.00 0.00 31 1025.8
20260902193106 80 0 0.0 0.0 0.00 0.00 0.00 30 1025.3
20260902191614 81 146 0.0 1.7 0.00 0.00 0.00 28 1025.2
20260902190116 82 167 0.9 0.9 0.00 0.00 0.00 27 1024.9
20260902184657 84 0 0.9 2.6 0.00 0.00 0.00 26 1024.8
20260902183118 86 217 2.6 4.3 0.00 0.00 0.00 25 1024.7
20260902181605 88 200 1.7 4.3 0.00 0.00 0.00 23 1024.7
20260902180131 89 264 2.6 9.6 0.00 0.00 0.00 22 1024.6
20260902174611 89 233 4.3 9.6 0.00 0.00 0.00 22 1024.5
20260902173103 89 239 4.3 10.4 0.00 0.00 0.00 22 1024.5
20260902171608 90 252 4.3 10.4 0.00 0.00 0.00 21 1024.4
20260902170118 90 260 5.2 11.3 0.00 0.00 0.00 22 1024.3
20260902164621 90 236 5.2 10.4 0.00 0.00 0.00 22 1024.3
20260902163103 90 259 7.0 13.0 0.00 0.00 0.00 23 1024.3
20260902161600 90 203 5.2 11.3 0.00 0.00 0.00 22 1024.4
20260902160108 90 259 4.3 11.3 0.00 0.00 0.00 23 1024.5
20260902154615 90 257 6.1 10.4 0.00 0.00 0.00 21 1024.6
20260902153102 90 205 7.0 14.8 0.00 0.00 0.00 20 1024.6
20260902151607 90 260 3.5 13.9 0.00 0.00 0.00 21 1024.7
20260902150105 89 285 5.2 9.6 0.00 0.00 0.00 20 1024.7
20260902144604 89 269 7.0 14.8 0.00 0.00 0.00 20 1024.8
20260902143103 88 246 8.7 16.5 0.00 0.00 0.00 21 1024.8
20260902141615 89 283 5.2 13.9 0.00 0.00 0.00 20 1024.8
20260902140105 88 238 6.1 12.2 0.00 0.00 0.00 20 1024.9
20260902134608 88 248 7.8 13.9 0.00 0.00 0.00 20 1025.0
20260902133104 88 292 6.1 13.0 0.00 0.00 0.00 21 1025.0
20260902131608 88 277 6.1 11.3 0.00 0.00 0.00 25 1025.1
20260902124604 88 225 5.2 10.4 0.00 0.00 0.00 25 1025.2
20260902123109 86 247 3.5 11.3 0.00 0.00 0.00 26 1025.3
20260902121606 86 233 5.2 13.0 0.00 0.00 0.00 26 1025.4
20260902114606 85 277 6.1 12.2 0.00 0.00 0.00 27 1025.6
20260902113112 85 270 7.0 11.3 0.00 0.00 0.00 28 1025.8
20260902111604 85 245 4.3 8.7 0.00 0.00 0.00 30 1025.9
20260902110101 84 169 1.7 10.4 0.00 0.00 0.00 30 1025.9
20260902104602 84 280 3.5 10.4 0.00 0.00 0.00 29 1026.0
20260902103104 83 263 0.9 6.1 0.00 0.00 0.00 32 1026.0
20260902101623 81 264 3.5 7.0 0.00 0.00 0.00 35 1026.1
20260902100100 80 242 1.7 8.7 0.00 0.00 0.00 36 1026.2
20260902094600 79 221 3.5 7.8 0.00 0.00 0.00 39 1026.2
20260902093101 78 268 1.7 5.2 0.00 0.00 0.00 44 1026.1
20260902091605 78 189 2.6 5.2 0.00 0.00 0.00 43 1026.0
20260902090127 76 0 0.0 0.9 0.00 0.00 0.00 55 1025.8
20260902084604 74 44 0.0 0.9 0.00 0.00 0.00 62 1025.7
20260902083110 71 0 0.0 0.9 0.00 0.00 0.00 65 1025.5
20260902081608 68 0 0.9 2.6 0.00 0.00 0.00 68 1025.6
20260902080110 66 51 0.9 3.5 0.00 0.00 0.00 70 1025.5
20260902074601 63 47 1.7 3.5 0.00 0.00 0.00 71 1025.4
20260902073101 61 80 1.7 1.7 0.00 0.00 0.00 73 1025.5
20260902071605 60 56 0.9 2.6 0.00 0.00 0.00 73 1025.3
20260902070109 59 0 0.9 2.6 0.00 0.00 0.00 72 1025.2
20260902064607 58 0 0.0 0.0 0.00 0.00 0.00 72 1025.1
20260902063102 56 0 0.0 0.9 0.00 0.00 0.00 75 1025.0
20260902061623 56 98 0.0 0.0 0.00 0.00 0.00 74 1024.9